Location: Astronomy Club of Akron Observatory
(40.9700°N, 81.5606°W)
Time: 15:49:50
(UTC-04:00)

Cosmos 1441 Rocket - Visible Passes

Search period start: 28 April 2015 00:00
Search period end: 08 May 2015 00:00
Orbit: 503 x 551 km, 81.1° (Epoch: 28 April)

Date Brightness Start Highest point End Pass type
(mag) Time Alt. Az. Time Alt. Az. Time Alt. Az.
28 Apr 3.9 21:10:58 10° N 21:14:34 36° ENE 21:17:34 14° SE visible
28 Apr 6.0 22:48:16 10° NW 22:50:24 14° W 22:52:25 10° WSW visible
29 Apr 4.0 20:59:30 10° N 21:03:03 34° ENE 21:06:38 10° SE visible
29 Apr 6.0 22:36:33 10° NW 22:38:55 15° W 22:41:09 10° SW visible
30 Apr 4.1 20:48:03 10° N 20:51:31 31° ENE 20:55:02 10° SE visible
30 Apr 5.9 22:24:52 10° NW 22:27:26 17° W 22:29:53 10° SW visible
01 May 5.9 22:13:12 10° NW 22:15:56 18° W 22:18:34 10° SW visible
02 May 5.8 22:01:33 10° NW 22:04:26 19° W 22:07:14 10° SW visible
03 May 5.7 21:49:54 10° NW 21:52:55 21° W 21:55:52 10° SW visible
04 May 5.6 21:38:16 10° NW 21:41:24 23° W 21:44:30 10° SW visible
05 May 5.6 21:26:37 10° NW 21:29:53 25° W 21:33:06 10° SSW visible
06 May 5.5 21:15:00 10° NW 21:18:21 27° W 21:21:41 10° SSW visible
07 May 5.4 21:03:22 10° NNW 21:06:50 29° W 21:10:15 10° SSW visible
